Lid_Strength_Index
5 5 4 4 4 3 3 3 2 2 2 2 2 2 2 1 1 2 1 1 2 2 2 1 1 1 0 0 0 0 1 1 1
5 5 4 4 3 3 3 3 2 2 2 2 2 2 1 1 2 1 1 2 1 1 1 1 1 1 1 1 1 1 1 1 1
6 5 5 4 4 3 3 2 2 2 2 2 2 2 1 1 2 1 1 1 1 1 1 1 1 1 1 1 1 1 1 1 1
6 5 5 4 4 3 3 3 2 2 2 2 2 2 2 1 1 1 1 1 1 1 1 1 1 1 1 1 1 1 1 1 1
5 5 5 4 4 3 3 3 3 3 2 2 2 2 2 2 1 1 1 1 1 1 1 1 1 1 1 1 1 1 1 1 1
6 5 5 4 4 4 4 4 3 3 2 2 2 2 2 2 2 1 2 1 1 1 1 1 1 1 1 1 1 1 1 1 1
6 6 5 5 5 5 4 3 3 3 3 2 2 2 2 2 2 2 1 1 1 1 1 2 2 2 2 2 2 4 2 2 2
6 6 5 5 5 5 4 4 3 3 2 2 2 2 2 2 2 2 1 1 1 1 1 1 1 1 3 7 7 4 4 2 3
6 6 5 5 5 4 4 4 3 3 3 2 2 2 3 2 2 2 2 2 2 1 1 1 1 2 5 7 6 2 0 2 3
6 6 5 5 5 4 4 4 3 3 3 2 2 2 2 2 2 2 2 1 1 2 2 2 3 2 4 6 6 2 1 0 4
6 5 5 4 4 4 3 3 3 3 2 2 2 2 2 2 2 2 2 1 2 2 2 2 2 3 2 5 5 2 2 1 4
5 4 4 4 3 3 3 3 2 3 3 2 2 3 2 2 2 2 2 2 2 2 3 3 4 4 3 5 5 2 2 4 5
4 4 3 3 3 3 3 3 3 3 3 3 3 2 2 2 2 2 2 2 3 3 4 4 4 4 3 2 4 2 3 4 5
4 4 4 3 3 3 3 3 3 3 3 3 2 2 2 2 2 2 2 4 3 4 4 5 5 5 4 5 2 4 3 3 6
4 4 4 3 3 3 3 3 3 3 3 2 2 2 2 2 2 2 4 4 3 4 4 5 5 6 5 2 2 3 3 3 4
4 5 4 3 3 3 3 3 3 3 3 2 3 3 3 2 3 3 3 3 3 4 4 5 5 4 4 3 3 3 3 4 4
4 4 4 4 4 4 4 3 2 3 2 2 3 3 3 3 4 4 3 3 3 3 4 6 9 7 7 7 8 6 5 6 5
5 4 4 3 4 4 4 3 3 2 2 2 3 3 4 4 4 5 4 6 5 7 8 8 9 8 8 8 8 8 7 7 7
4 4 4 4 4 4 3 3 4 3 3 2 2 3 3 4 5 5 4 7 8 8 8 8 8 8 8 7 6 6 7 7 7
5 4 4 4 4 4 4 3 5 5 4 2 2 3 3 4 5 5 4 4 6 8 8 7 8 8 8 8 7 7 8 8 8